Regional Weather Roundup
Issued by NWS Cleveland, OH

Home | Current Version | Previous Version | Graphics & Text | Print | Product List | Glossary On
Versions: 1 2 3 4 5 6 7 8 9 10 11 12 13 14 15 16 17 18 19 20 21 22 23 24 25 26 27 28 29 30 31 32 33 34 35 36 37 38 39 40 41 42 43 44 45 46 47 48 49 50
000
ASUS41 KCLE 280810
RWRCLE
OHIO REGIONAL WEATHER ROUNDUP
NATIONAL WEATHER SERVICE CLEVELAND, OH
400 AM EDT FRI APR 28 2017

NOTE: "FAIR" INDICATES FEW OR NO CLOUDS BELOW 12,000 FEET WITH NO
SIGNIFICANT WEATHER AND/OR OBSTRUCTIONS TO VISIBILITY.

OHZ001>008-015>018-024>027-034-035-043-044-280900-
   NORTHWEST OHIO

CITY           SKY/WX    TMP DP  RH WIND       PRES   REMARKS
DEFIANCE       CLOUDY    45  37  73 W3        29.93R
FINDLAY        CLEAR     45  40  82 W8        29.94R
TOLEDO EXPRESS PTCLDY    47  38  71 W10       29.92R
TOLEDO EXEC    PTCLDY    48  40  73 W13       29.93R
LIMA           CLEAR     46  42  86 W7        29.95R
$$

OHZ009>014-019>023-028>033-038-089-280900-
   NORTHEAST OHIO

CITY           SKY/WX    TMP DP  RH WIND       PRES   REMARKS
CLE-HOPKINS    PTCLDY    49  41  74 S6        29.95S
CLE-LAKEFRONT  CLEAR     49  42  77 SW8       29.92S
CUY CO. ARPT   NOT AVBL
LORAIN-ELYRIA  CLEAR     43  38  82 SW7       29.95R
ASHTABULA      CLOUDY    48  44  86 S6        29.95R
AKRON-CANTON   PTCLDY    48  42  80 CALM      29.95R
WOOSTER        CLOUDY    44  42  93 VRB3      29.96R
MANSFIELD      CLEAR     44  41  89 W3        29.95R
YOUNGSTOWN     PTCLDY    48  42  80 W3        29.94R
$$

OHZ042-051>053-060>062-070>072-077>081-280900-
  SOUTHWEST OHIO

CITY           SKY/WX    TMP DP  RH WIND       PRES   REMARKS
CINC-COVINGTON MOCLDY    45  44  97 S3        29.96R FOG
CINC-LUNKEN    FOG       44  44 100 CALM      29.98R VSB 3/4
HAMILTON       PTCLDY    43  43 100 CALM      29.97R FOG
DAYTON         PTCLDY    46  42  86 NW5       29.97R
WRIGHT-PAT AFB MOCLDY    45  43  93 CALM      29.97R
DAYTON GENERAL CLOUDY    49  43  80 CALM      29.96R
WILMINGTON     PTCLDY    46  46 100 CALM      29.97R
$$

OHZ036-037-039>041-045>050-054>059-063>069-073>076-082>088-280900-
  CENTRAL AND SOUTHEAST OHIO

CITY           SKY/WX    TMP DP  RH WIND       PRES   REMARKS
COLUMBUS       PTCLDY    50  46  86 CALM      29.96R
OSU AIRPORT    PTCLDY    45  44  97 CALM      29.97R
BOLTON FIELD   PTCLDY    44  43  97 W3        29.97R
RICKENBACK AFB PTCLDY    46  45  95 W3        29.96R
NEWARK         CLEAR     43  41  93 W3        29.96R
MARION         MOCLDY    42  39  89 CALM      29.97R
LANCASTER      PTCLDY    43  41  93 SE3       29.96R
ZANESVILLE     CLEAR     46  43  89 SE3       29.96R
NEW PHILLY     NOT AVBL
$$



USA.gov is the U.S. government's official web portal to all federal, state and local government web resources and services.